Location: Red Deer
(52.2681°N, 113.8112°W)
Time: 23:37:26
(UTC-06:00)

CAS-4B - Visible Passes

Search period start: 20 May 2022 00:00
Search period end: 30 May 2022 00:00
Orbit: 526 x 536 km, 43.0° (Epoch: 20 May)

Date Brightness Start Highest point End Pass type
(mag) Time Alt. Az. Time Alt. Az. Time Alt. Az.
20 May ? 23:19:01 10° SW 23:22:08 21° S 23:23:07 20° SSE visible
21 May ? 23:06:45 10° SW 23:09:54 22° S 23:11:38 17° SE visible
22 May ? 00:46:24 10° WSW 00:46:51 12° SW 00:46:51 12° SW visible
22 May ? 22:54:29 10° SW 22:57:39 22° S 22:59:58 14° SE visible
23 May ? 00:34:18 10° WSW 00:35:11 13° SW 00:35:11 13° SW visible
23 May ? 22:42:14 10° SW 22:45:23 22° S 22:48:12 12° SE visible
24 May ? 00:22:15 10° SW 00:23:25 13° SW 00:23:25 13° SW visible
24 May ? 22:30:00 10° SW 22:33:07 22° S 22:36:15 10° SE visible
25 May ? 00:10:16 10° SW 00:11:35 13° SSW 00:11:35 13° SSW visible
25 May ? 22:17:45 10° WSW 22:20:50 21° S 22:23:55 10° SE visible
25 May ? 23:58:24 10° SW 23:59:44 12° SSW 23:59:44 12° SSW visible
26 May ? 23:46:54 10° SW 23:47:35 10° SSW 23:47:51 10° SSW visible
